User: anonymous   Login
Location: Unspecified
(0.0000°N, 0.0000°E)
Time: 06:06:30
(UTC+00:00)
Language:

USA 139 - Orbit

View from above orbital plane
View from above orbital plane
View from above satellite
View from above satellite

Ground track
Ground track

The orbit data is extracted from the following two-line orbital elements,

1 25336U 98029A   18125.44093587 0.00000000  00000-0  00000-0 0    07
2 25336   8.9419 355.7422 0040580 267.5564  91.9856  1.00270000    00
Epoch (UTC): 05 May 2018 10:34:56
Eccentricity: 0.0040580
inclination: 8.9419°
perigee height: 35615 km
apogee height: 35958 km
right ascension of ascending node: 355.7422°
argument of perigee: 267.5564°
revolutions per day: 1.00270000
mean anomaly at epoch: 91.9856°
orbit number at epoch: 0

The dashed part of the orbit path shows where the satellite is in the earth's shadow,  

DLR